Amsterdam, Netherlands

12:09 PM CET on December 12, 2019 (GMT +0100)
Schiphol

Weather History for EHAM - November, 2019

Change the Weather History Date:

Friday, November 15, 2019

  Actual Average Record
Temperature  
Mean Temperature 40 °F -  
Max Temperature 42 °F 45 °F 59 °F (2006)
Min Temperature 37 °F 36 °F 28 °F (2001)
Degree Days  
Heating Degree Days 24    
Moisture  
Dew Point 37 °F    
Average Humidity 85    
Maximum Humidity 93    
Minimum Humidity 76    
Precipitation  
Precipitation 0.00 in - - ()
Sea Level Pressure  
Sea Level Pressure 29.59 in    
Wind  
Wind Speed 11 mph ()    
Max Wind Speed 18 mph    
Max Gust Speed -    
Visibility 5.9 miles    
Events      
Averages and records for this station are not official NWS values.
T = Trace of Precipitation, MM = Missing Value Source: Averaged Metar Reports

Daily Weather History Graph

Daily Weather History Graph

Search for Another Location

Airport or City:

Astronomy

Nov. 15, 2019 Rise Set
Actual Time 8:01 AM CET 4:49 PM CET
Civil Twilight 7:23 AM CET 5:26 PM CET
Nautical Twilight 6:41 AM CET 6:08 PM CET
Astronomical Twilight 6:01 AM CET 6:48 PM CET
Moon 6:56 PM CET (11/15) 10:55 AM CET (11/15)
Length of Visible Light 10h 03m
Length of Day
8h 47m
Waning Gibbous, 91% of the Moon is Illuminated
Nov 15
Waning Gibbous
Nov 19
Last Quarter
Nov 26
New
Dec 4
First Quarter
Dec 12
Full

Hourly Weather History & Observations

Time (CET) Temp. Windchill Dew Point Humidity Pressure Visibility Wind Dir Wind Speed Gust Speed Precip Events Conditions
12:00 AM 42 °F - 38 °F 83% 29.64 in 16 mi ENE 15.7 mph - -   Partly Cloudy
12:25 AM 41.0 °F 34.7 °F 37.4 °F 87% 29.62 in - ENE 10.4 mph - N/A   Clear
12:55 AM 41.0 °F 35.8 °F 37.4 °F 87% 29.65 in - East 8.1 mph - N/A   Clear
1:25 AM 39.2 °F 34.2 °F 37.4 °F 93% 29.65 in - ENE 6.9 mph - N/A   Clear
1:55 AM 39.2 °F 34.2 °F 35.6 °F 87% 29.62 in - ENE 6.9 mph - N/A   Clear
2:00 AM 39 °F - 37 °F 88% 29.64 in 10 mi NE 6.7 mph - -   Partly Cloudy
2:25 AM 39.2 °F 33.6 °F 37.4 °F 93% 29.62 in - NE 8.1 mph - N/A   Clear
2:55 AM 41.0 °F 34.7 °F 37.4 °F 87% 29.62 in - NE 10.4 mph - N/A   Clear
3:25 AM 39.2 °F 33.6 °F 37.4 °F 93% 29.59 in - NE 8.1 mph - N/A   Clear
4:00 AM 40 °F - 37 °F 83% 29.61 in 6 mi NE 11.2 mph - -   Partly Cloudy
4:25 AM 39.2 °F 32.0 °F 37.4 °F 93% 29.59 in 6.2 mi NE 11.5 mph - N/A   Partly Cloudy
4:55 AM 39.2 °F 33.0 °F 35.6 °F 87% 29.59 in 6.2 mi NE 9.2 mph - N/A   Partly Cloudy
5:25 AM 39.2 °F 31.2 °F 35.6 °F 87% 29.59 in 6.2 mi ENE 13.8 mph - N/A   Scattered Clouds
5:55 AM 39.2 °F 30.5 °F 35.6 °F 87% 29.56 in 6.2 mi NE 16.1 mph - N/A   Mostly Cloudy
6:25 AM 39.2 °F 30.2 °F 35.6 °F 87% 29.56 in 6.2 mi ENE 17.3 mph - N/A   Mostly Cloudy
6:55 AM 39.2 °F 30.8 °F 35.6 °F 87% 29.59 in 6.2 mi ENE 15.0 mph - N/A   Mostly Cloudy
7:25 AM 39.2 °F 30.8 °F 35.6 °F 87% 29.59 in 6.2 mi ENE 15.0 mph - N/A   Overcast
7:55 AM 39.2 °F 29.8 °F 33.8 °F 81% 29.56 in 6.2 mi ENE 18.4 mph - N/A   Overcast
8:00 AM 39 °F - 35 °F 78% 29.58 in 7 mi ENE 15.7 mph - -   Partly Cloudy
8:25 AM 39.2 °F 30.2 °F 33.8 °F 81% 29.56 in 6.2 mi ENE 17.3 mph - N/A   Overcast
8:55 AM 39.2 °F 30.2 °F 33.8 °F 81% 29.56 in 6.2 mi ENE 17.3 mph - N/A   Overcast
9:25 AM 39.2 °F 30.2 °F 33.8 °F 81% 29.59 in 6.2 mi East 17.3 mph - N/A   Overcast
9:55 AM 41.0 °F 32.8 °F 35.6 °F 81% 29.56 in 6.2 mi ENE 16.1 mph - N/A   Overcast
10:55 AM 41.0 °F 33.1 °F 35.6 °F 81% 29.59 in 6.2 mi NE 15.0 mph - N/A   Overcast
11:00 AM 41 °F - 36 °F 76% 29.60 in 6 mi NE 11.2 mph - -   Partly Cloudy
11:25 AM 41.0 °F 33.1 °F 35.6 °F 81% 29.59 in 6.2 mi NE 15.0 mph - N/A   Mostly Cloudy
11:55 AM 41.0 °F 33.5 °F 35.6 °F 81% 29.56 in 6.2 mi NE 13.8 mph - N/A   Mostly Cloudy
12:00 PM 41 °F - 37 °F 79% 29.58 in 6 mi NE 13.4 mph - -   Mist
12:25 PM 41.0 °F 33.1 °F 35.6 °F 81% 29.59 in 6.2 mi ENE 15.0 mph - N/A   Mostly Cloudy
12:55 PM 41.0 °F 33.1 °F 37.4 °F 87% 29.56 in 6.2 mi NE 15.0 mph - N/A   Mostly Cloudy
1:00 PM 41 °F - 36 °F 78% 29.57 in 6 mi NE 15.7 mph - -   Mist
1:25 PM 41.0 °F 33.1 °F 37.4 °F 87% 29.56 in 6.2 mi ENE 15.0 mph - N/A   Mostly Cloudy
1:55 PM 41.0 °F 33.1 °F 37.4 °F 87% 29.56 in 6.2 mi ENE 15.0 mph - N/A   Overcast
2:00 PM 41 °F - 36 °F 78% 29.56 in 6 mi NE 13.4 mph - -   Mist
2:25 PM 41.0 °F 33.5 °F 35.6 °F 81% 29.56 in 6.2 mi ENE 13.8 mph - N/A   Overcast
2:55 PM 41.0 °F 33.9 °F 35.6 °F 81% 29.56 in 6.2 mi ENE 12.7 mph - N/A   Overcast
3:00 PM 41 °F - 36 °F 77% 29.57 in 5 mi ENE 13.4 mph - -   Mist
3:25 PM 41.0 °F 33.5 °F 37.4 °F 87% 29.56 in 5.6 mi ENE 13.8 mph - N/A   Overcast
3:55 PM 41.0 °F 34.3 °F 37.4 °F 87% 29.56 in 5.6 mi ENE 11.5 mph - N/A   Overcast
4:00 PM 41 °F - 37 °F 79% 29.55 in 5 mi ENE 13.4 mph - -   Mist
4:55 PM 41.0 °F 34.7 °F 37.4 °F 87% 29.56 in 4.3 mi ENE 10.4 mph - N/A   Overcast
5:00 PM 41 °F - 37 °F 80% 29.58 in 5 mi East 11.2 mph - -   Mist
5:25 PM 41.0 °F 34.7 °F 37.4 °F 87% 29.56 in 5.0 mi ENE 10.4 mph - N/A   Mostly Cloudy
5:55 PM 41.0 °F 35.8 °F 37.4 °F 87% 29.59 in 5.0 mi ENE 8.1 mph - N/A   Mostly Cloudy
6:25 PM 41.0 °F 35.8 °F 37.4 °F 87% 29.59 in 5.0 mi ENE 8.1 mph - N/A   Mostly Cloudy
6:55 PM 41.0 °F 35.2 °F 37.4 °F 87% 29.59 in 5.0 mi East 9.2 mph - N/A   Mostly Cloudy
7:25 PM 41.0 °F 36.4 °F 37.4 °F 87% 29.59 in 5.0 mi East 6.9 mph - N/A   Mostly Cloudy
7:55 PM 41.0 °F 36.4 °F 37.4 °F 87% 29.62 in 5.0 mi East 6.9 mph - N/A   Mostly Cloudy
8:25 PM 41.0 °F 35.8 °F 37.4 °F 87% 29.62 in 5.0 mi East 8.1 mph - N/A   Mostly Cloudy
8:55 PM 41.0 °F 37.1 °F 37.4 °F 87% 29.62 in 5.0 mi East 5.8 mph - N/A   Mostly Cloudy
9:25 PM 41.0 °F 37.1 °F 39.2 °F 93% 29.65 in 4.3 mi East 5.8 mph - N/A   Mostly Cloudy
9:55 PM 41.0 °F 38.0 °F 39.2 °F 93% 29.65 in 4.3 mi East 4.6 mph - N/A   Mostly Cloudy
10:55 PM 41.0 °F - 37.4 °F 87% 29.65 in 4.3 mi East 2.3 mph - N/A   Mostly Cloudy
11:00 PM 40 °F - 38 °F 89% 29.68 in 4 mi East 2.2 mph - -   Mist
11:25 PM 39.2 °F 37.0 °F 35.6 °F 87% 29.65 in 4.3 mi ESE 3.5 mph - N/A   Mostly Cloudy
11:55 PM 37.4 °F 32.8 °F 35.6 °F 93% 29.68 in 4.3 mi ESE 5.8 mph - N/A   Partly Cloudy